This is the latest recevied weather packets stored in our database for station/object KY4OP-13. If no packets are shown the sender has not sent any weather packets the latest 10 day(s).
| Time | Temp. | Humidity | Pressure | Rain* | Wind** | Luminosity | Snow |
|---|---|---|---|---|---|---|---|
| 1778085182 | 17.78° C | 88% | 1011.6 hPa | 0 mm | - | - | - |
| 1778084878 | 17.78° C | 88% | 1011.8 hPa | 0 mm | - | - | - |
| 1778084576 | 17.78° C | 88% | 1011.8 hPa | 0 mm | - | - | - |
| 1778084273 | 17.22° C | 88% | 1011.8 hPa | 0 mm | - | - | - |
| 1778083970 | 17.22° C | 89% | 1011.8 hPa | 0 mm | - | - | - |
| 1778083662 | 17.22° C | 90% | 1011.6 hPa | 0 mm | - | - | - |
| 1778083358 | 17.22° C | 88% | 1011.8 hPa | 0 mm | - | - | - |
| 1778083057 | 17.22° C | 90% | 1012 hPa | 0 mm | - | - | - |
| 1778082754 | 17.22° C | 90% | 1011.8 hPa | 0 mm | - | - | - |
| 1778081626 | 16.11° C | 93% | 1012 hPa | 0 mm | - | - | - |
| 1778081323 | 16.11° C | 92% | 1012.2 hPa | 0 mm | - | - | - |
| 1778081021 | 16.11° C | 92% | 1012.2 hPa | 0 mm | - | - | - |
| 1778080719 | 16.11° C | 92% | 1012 hPa | 0 mm | - | - | - |
| 1778080415 | 16.11° C | 93% | 1011.7 hPa | 0 mm | - | - | - |
| 1778080113 | 16.11° C | 93% | 1012.1 hPa | 0 mm | - | - | - |
| 1778079809 | 16.11° C | 93% | 1012 hPa | 0 mm | - | - | - |
| 1778079506 | 16.11° C | 94% | 1012 hPa | 0 mm | - | - | - |
| 1778079202 | 16.11° C | 94% | 1011.8 hPa | 0 mm | - | - | - |
| 1778078900 | 15.56° C | 94% | 1012.2 hPa | 0 mm | - | - | - |
| 1778078596 | 15.56° C | 95% | 1012.1 hPa | 0 mm | - | - | - |
| 1778078295 | 15.56° C | 95% | 1012.3 hPa | 0 mm | - | - | - |
| 1778077992 | 15.56° C | 95% | 1012.2 hPa | 0 mm | - | - | - |
| 1778077690 | - | - | - | 0 mm | - | - | - |
| 1778077388 | - | - | - | 0 mm | - | - | - |
| 1778077086 | - | - | - | 0 mm | - | - | - |
* Rain latest hour (hover to see other rain measurements)
** Current wind speed in m/s (hover to see current wind gust speed)